Regional Weather Roundup
Issued by NWS

Home | Current Version | Previous Version | Graphics & Text | Print | Product List | Glossary On
Versions: 1 2 3 4 5 6 7 8 9 10 11 12 13 14 15 16 17 18 19 20 21 22 23 24 25 26 27 28 29 30 31 32 33 34 35 36 37 38 39 40 41 42 43 44 45 46 47 48 49 50
000
ASUS44 KMEG 302100
RWRTN
TENNESSEE HOURLY STATE WEATHER ROUNDUP
NATIONAL WEATHER SERVICE MEMPHIS TN
400 PM CDT SAT JUL 30 2016

TNZ002-004-019-021-049-052-054-088>092-302200-
WEST TENNESSEE

CITY           SKY/WX    TMP DP  RH WIND       PRES   REMARKS
MEMPHIS INTL   MOSUNNY   91  73  55 VRB3      29.97F HX  99
NWS MEMPHIS      N/A     88 N/A N/A MISG        N/A
JACKSON        MOSUNNY   85  73  67 W5        29.98F HX  91
DYERSBURG      SUNNY    N/A N/A N/A MISG        N/A
UNION CITY     SUNNY     86  73  66 VRB5      29.96F HX  93
PARIS          SUNNY     84  72  65 CALM      29.98F
LEXINGTON      MOSUNNY   88  72  58 SW3       29.98F HX  94
$$

TNZ008-025-027-028-033-062-065-066-302200-
NORTH MIDDLE TENNESSEE

CITY           SKY/WX    TMP DP  RH WIND       PRES   REMARKS
NASHVILLE      PTSUNNY   87  69  54 S6        29.98F HX  91
CLARKSVILLE    SUNNY     86  71  60 SW5       29.97S HX  91
COOKEVILLE     SUNNY     88  73  62 VRB5      30.00F HX  96
CROSSVILLE     PTSUNNY   82  68  62 VRB6      30.05F
$$

TNZ061-075-076-078-094-096-097-302200-
SOUTH MIDDLE TENNESSEE

CITY           SKY/WX    TMP DP  RH WIND       PRES   REMARKS
TULLAHOMA      SUNNY     84  70  61 SW8       30.03R
WINCHESTER     SUNNY     84  72  65 W6        30.01S
MCMINNVILLE    SUNNY     84  72  65 VRB3      30.01S
COLUMBIA       SUNNY     90  73  58 S6        29.98S HX  98
SHELBYVILLE    SUNNY     90  73  58 W8        30.00F HX  98
$$

TNZ017-018-042-046-047-302200-
NORTHEAST TENNESSEE

CITY           SKY/WX    TMP DP  RH WIND       PRES   REMARKS
TRI CITIES     PTSUNNY   85  66  53 CALM      30.01F
$$

TNZ012-013-036-069-073-074-302200-
CENTRAL EAST TENNESSEE

CITY           SKY/WX    TMP DP  RH WIND       PRES   REMARKS
KNOXVILLE      MOSUNNY   89  67  47 VRB6      29.97S HX  92
OAK RIDGE      MOSUNNY   92  68  45 VRB6      29.99F HX  96
GATLINBURG       N/A     93  66  40 W7        29.97S HX  96
$$

TNZ083-085-099-302200-
SOUTHEAST TENNESSEE

CITY           SKY/WX    TMP DP  RH WIND       PRES   REMARKS
CHATTANOOGA    CLOUDY    89  68  49 W12G17    29.98S HX  93
$$

SKY/WX REPORTED AS FAIR MEANS FEW OR NO CLOUDS BELOW
12 THOUSAND FEET.





USA.gov is the U.S. government's official web portal to all federal, state and local government web resources and services.